Regional Weather Roundup
Issued by NWS

Home | Current Version | Previous Version | Text Only | Print | Product List | Glossary On
Versions: 1 2 3 4 5 6 7 8 9 10 11 12 13 14 15 16 17 18 19 20 21 22 23 24 25 26 27 28 29 30 31 32 33 34 35 36 37 38 39 40 41 42 43 44 45 46 47 48 49 50
000
ASUS42 KFFC 011610
RWRGA
WEATHER ROUNDUP FOR GEORGIA
NATIONAL WEATHER SERVICE PEACHTREE CITY GA
1200 PM EDT SAT AUG 01 2015

NOTE: "FAIR" INDICATES FEW OR NO CLOUDS BELOW 12,000 FEET WITH NO
SIGNIFICANT WEATHER AND/OR OBSTRUCTIONS TO VISIBILITY.

* = USE WITH CAUTION. THE STATIONS MARKED WITH AN ASTERISK MAY NOT
REPORT WEATHER SUCH AS PRECIPITATION, FOG, OR THUNDER AND ARE NOT
QUALITY CONTROLLED BY NWS.

THE REMARK "TC" DENOTES TEMPERATURE READING IN DEGREES CELSIUS.

GAZ001>058-011700-
NORTH GEORGIA

CITY           SKY/WX    TMP DP  RH WIND       PRES   REMARKS
ATLANTA        PTSUNNY   80  60  50 E15G23    30.01R
ATHENS         MOSUNNY   86  64  47 NE9       30.01R
CHAMBLEE       CLOUDY    83  63  50 VRB5      30.02R
PEACHTREE CITY PTSUNNY   84  69  60 NE7       30.00R
ROME           CLOUDY    85  61  44 NE10      30.01S
WEST ATLANTA   CLOUDY    84  62  47 NE7       30.01R
GAINESVILLE    PTSUNNY   82  63  52 SE8       30.05R
CARTERSVILLE   SUNNY     87  65  47 N6        30.02R


CITY           SKY/WX    TMP DP  RH WIND       PRES   REMARKS
DALTON*        SUNNY     82  64  54 N9        30.02S
LAWRENCEVILLE* PTSUNNY   82  57  42 NE9G17    30.01R
MARIETTA       CLOUDY    83  63  51 E9        30.02R
KENNESAW*      PTSUNNY  N/A N/A N/A VRB5      30.04
BLAIRSVILLE*     N/A     80  27  14 NE3       30.08S
$$

GAZ059>098-102>109-011700-
CENTRAL GEORGIA

CITY           SKY/WX    TMP DP  RH WIND       PRES   REMARKS
AUGUSTA-BUSH   MOSUNNY   87  71  58 VRB5      29.95R HX  93
AUGUSTA-DANIEL PTSUNNY   88  67  49 NE6       29.98R HX  91
COLUMBUS       MOSUNNY   84  73  70 VRB6      29.94S HX  91
MACON          MOSUNNY   86  74  67 VRB7      29.95S HX  94
ROBINS AFB     MOSUNNY   85  74  68 VRB2      29.94S HX  93


CITY           SKY/WX    TMP DP  RH WIND       PRES   REMARKS
LAGRANGE*      MOSUNNY   87  77  72 E3        29.97S HX  99
SYLVANIA*      SUNNY     88  76  68 N7        29.96S HX  98
MILLEDGEVILLE* PTSUNNY   86  72  62 N3        29.96F HX  92
$$

GAZ099>101-110>166-011700-
SOUTH GEORGIA

CITY           SKY/WX    TMP DP  RH WIND       PRES   REMARKS
SAVANNAH       PTSUNNY   84  74  71 CALM      29.95R HX  91
VALDOSTA       MOSUNNY   85  77  77 NE3       29.92F HX  95
ALMA           PTSUNNY   82  75  79 E6        29.94S
ST SIMONS      PTSUNNY   82  75  79 S6        29.95R
FT STEWART     MOSUNNY   84  72  65 N6        29.87S
ALBANY         CLOUDY    82  76  81 E7        29.94F
HUNTER AFB     MOSUNNY   88  78  72 SW3       29.92S HX 101
MOODY AFB      PTSUNNY   83  76  78 CALM      29.92S HX  91
BRUNSWICK      PTSUNNY   82  75  78 CALM      29.95S


CITY           SKY/WX    TMP DP  RH WIND       PRES   REMARKS
BAINBRIDGE*    CLOUDY    86  79  79 E5        29.92S HX  99
MOULTRIE*      PTSUNNY   82  77  83 NE7       29.94S HX  91
VIDALIA*       SUNNY     86  73  66 NE5       29.95S HX  93
WAYCROSS*      PTSUNNY   86  80  83 E5        29.93F HX 102
DOUGLAS*       CLOUDY    82  77  83 SE3       29.96S HX  91
$$


USA.gov is the U.S. government's official web portal to all federal, state and local government web resources and services.